• In Czech Republic
  • List of Countries
  • For 7 days
  • Water Temperature
  • Satellite Maps
  • Weather Map
  • Weather Widgets
  • user-avatar
    Login

    Hourly Weather Rozhnyatov

    Today, 17 January, Wednesday

    Time Temperature Precipitation Wind Pressure Humidity
    00:00 -8°C° 0 mm 3 mps 709 mmHg 97%
    01:00 -6°C° 0 mm 3 mps 709 mmHg 87%
    02:00 -2°C° 0 mm 3 mps 709 mmHg 82%
    03:00 -2°C° 0 mm 3 mps 709 mmHg 84%
    04:00 -2°C° 0 mm 3 mps 709 mmHg 86%
    05:00 -2°C° 0 mm 3 mps 709 mmHg 88%
    06:00 -2°C° 0 mm 3 mps 709 mmHg 87%
    07:00 -4°C° 0 mm 3 mps 708 mmHg 88%
    08:00 -1°C° 0 mm 1 mps 709 mmHg 86%
    09:00 -3°C° 0 mm 2 mps 709 mmHg 84%
    10:00 0°C° 0 mm 1 mps 709 mmHg 83%
    11:00 +1°C° 0 mm 1 mps 709 mmHg 89%
    12:00 +2°C° 0 mm 1 mps 709 mmHg 90%
    13:00 +1°C° 0 mm 0 mps 708 mmHg 94%
    14:00 +2°C° 0 mm 1 mps 708 mmHg 95%
    15:00 +2°C° 0 mm 2 mps 709 mmHg 96%
    16:00 +2°C° 0 mm 1 mps 708 mmHg 94%
    17:00 +1°C° 0 mm 0 mps 708 mmHg 92%
    18:00 +1°C° 0 mm 1 mps 708 mmHg 94%
    19:00 0°C° 0 mm 1 mps 708 mmHg 96%
    20:00 -1°C° 0 mm 1 mps 708 mmHg 98%
    21:00 -4°C° 0.9 mm 2 mps 709 mmHg 100%
    22:00 -4°C° 0.6 mm 3 mps 709 mmHg 100%
    23:00 -3°C° 0.5 mm 2 mps 710 mmHg 100%

    Tomorrow, 18 January, Thursday

    Time Temperature Precipitation Wind Pressure Humidity
    00:00 -3°C° 0.2 mm 2 mps 710 mmHg 100%
    01:00 -4°C° 0 mm 3 mps 711 mmHg 99%
    02:00 -4°C° 0 mm 3 mps 711 mmHg 100%
    03:00 -7°C° 0 mm 4 mps 711 mmHg 98%
    04:00 -8°C° 0 mm 4 mps 711 mmHg 97%
    05:00 -8°C° 0 mm 4 mps 712 mmHg 97%
    06:00 -7°C° 0 mm 4 mps 712 mmHg 98%
    07:00 -7°C° 0 mm 5 mps 713 mmHg 96%
    08:00 -7°C° 0 mm 5 mps 713 mmHg 95%
    09:00 -8°C° 0 mm 5 mps 714 mmHg 95%
    10:00 -6°C° 0 mm 5 mps 715 mmHg 94%
    11:00 -5°C° 0 mm 6 mps 715 mmHg 91%
    12:00 -5°C° 0 mm 5 mps 716 mmHg 90%
    13:00 -4°C° 0 mm 5 mps 716 mmHg 89%
    14:00 -4°C° 0 mm 5 mps 716 mmHg 89%
    15:00 -3°C° 0 mm 4 mps 716 mmHg 88%
    16:00 -4°C° 0 mm 3 mps 716 mmHg 89%
    17:00 -6°C° 0 mm 5 mps 715 mmHg 88%
    18:00 -7°C° 0 mm 5 mps 715 mmHg 87%
    19:00 -8°C° 0 mm 5 mps 715 mmHg 87%
    20:00 -6°C° 0 mm 3 mps 714 mmHg 81%
    21:00 -5°C° 0 mm 4 mps 713 mmHg 79%
    22:00 -3°C° 0 mm 4 mps 712 mmHg 79%
    23:00 -3°C° 0 mm 6 mps 711 mmHg 78%

    Day after tomorrow, 19 January, Friday

    Time Temperature Precipitation Wind Pressure Humidity
    00:00 -3°C° 0 mm 10 mps 710 mmHg 77%
    01:00 -3°C° 0 mm 12 mps 709 mmHg 79%
    02:00 -2°C° 0 mm 11 mps 709 mmHg 80%
    03:00 -3°C° 0 mm 9 mps 709 mmHg 83%
    04:00 -2°C° 0 mm 8 mps 709 mmHg 85%
    05:00 -2°C° 0 mm 7 mps 709 mmHg 87%
    06:00 -2°C° 0 mm 7 mps 709 mmHg 88%
    07:00 -2°C° 0 mm 7 mps 709 mmHg 88%
    08:00 -2°C° 0 mm 6 mps 710 mmHg 90%
    09:00 -2°C° 0 mm 6 mps 710 mmHg 90%
    10:00 -2°C° 0 mm 6 mps 711 mmHg 88%
    11:00 -1°C° 0 mm 7 mps 711 mmHg 87%
    12:00 -1°C° 0 mm 6 mps 712 mmHg 85%
    13:00 -1°C° 0 mm 6 mps 712 mmHg 85%
    14:00 0°C° 0 mm 5 mps 713 mmHg 84%
    15:00 0°C° 0 mm 5 mps 713 mmHg 84%
    16:00 -1°C° 0 mm 4 mps 714 mmHg 86%
    17:00 -2°C° 0 mm 4 mps 715 mmHg 87%
    18:00 -2°C° 0 mm 3 mps 715 mmHg 90%
    19:00 -4°C° 0 mm 4 mps 716 mmHg 94%
    20:00 -5°C° 0 mm 3 mps 716 mmHg 95%
    21:00 -6°C° 0 mm 3 mps 717 mmHg 95%
    22:00 -3°C° 0 mm 1 mps 717 mmHg 95%
    23:00 -4°C° 0 mm 1 mps 717 mmHg 97%

    20 January, Saturday

    Time Temperature Precipitation Wind Pressure Humidity
    00:00 -6°C° 0 mm 1 mps 718 mmHg 98%
    01:00 -6°C° 0 mm 1 mps 718 mmHg 98%
    02:00 -6°C° 0 mm 1 mps 718 mmHg 98%
    03:00 -6°C° 0 mm 1 mps 718 mmHg 96%
    04:00 -6°C° 0 mm 1 mps 718 mmHg 99%
    05:00 -8°C° 0 mm 2 mps 718 mmHg 100%
    06:00 -7°C° 0 mm 1 mps 718 mmHg 100%
    07:00 -7°C° 0 mm 1 mps 718 mmHg 100%
    08:00 -7°C° 0 mm 1 mps 718 mmHg 100%
    09:00 -7°C° 0 mm 1 mps 717 mmHg 100%
    10:00 -6°C° 0 mm 1 mps 718 mmHg 100%
    11:00 -6°C° 0 mm 2 mps 717 mmHg 100%
    12:00 -6°C° 0 mm 3 mps 717 mmHg 100%
    13:00 -5°C° 0.2 mm 4 mps 717 mmHg 100%
    14:00 -5°C° 0 mm 4 mps 716 mmHg 99%

    21 January, Sunday

    Time Temperature Precipitation Wind Pressure Humidity

    22 January, Monday

    Time Temperature Precipitation Wind Pressure Humidity
    Show more